Eureka - southern half: Past 24 Hour Conditions

 

Clyde Airport

03:00 PM EST 23 November 2014
This table is a summary of hourly weather conditions for the past 24 hours.
Date / Time
(EST)
Wind(knots) Conditions Visibility(km) Pressure(kPa) Air tempC) Relative humidity(%) Dew pointC) Wind Chill
23 November 2014
15:00 NW 31 gust 37 Light Snow 0.2 99.1 -12 89 -14 -25
14:00 NW 26 Light Snow 0.4 99.1 -12 89 -13 -24
13:00 NW 26 gust 32 Light Snow 0.6 99.2 -12 88 -14 -25
12:00 NW 27 Light Snow 0.8 99.2 -13 87 -14 -25
11:00 NW 25 Light Snow 2 99.3 -12 88 -14 -25
10:00 NW 26 Light Snow 3 99.4 -13 87 -15 -25
9:00 NW 25 Light Snow 4 99.5 -13 87 -15 -25
8:00 NW 26 Light Snow 3 99.5 -13 87 -15 -26
7:00 NW 23 Light Snow 2 99.5 -13 87 -15 -25
6:00 NW 24 Light Snow 2 99.6 -13 87 -15 -25
5:00 NW 23 Snow 0.8 99.6 -13 88 -15 -25
4:00 NW 19 gust 24 Light Snow 2 99.6 -13 87 -15 -24
3:00 NW 22 gust 27 Light Snow 2 99.6 -13 87 -15 -25
2:00 NW 22 Light Snow 2 99.5 -13 86 -15 -25
1:00 NW 23 Light Snow 2 99.5 -13 86 -15 -26
0:00 NW 17 gust 22 Light Snow 2 99.6 -14 86 -16 -25
22 November 2014
23:00 NW 23 Light Snow 1 99.6 -14 87 -16 -26
22:00 NW 23 gust 28 Light Snow 2 99.6 -14 85 -16 -27
21:00 NW 22 gust 27 Light Snow 2 99.6 -15 85 -17 -27
20:00 NW 22 gust 29 Light Snow 2 99.6 -15 85 -17 -28
19:00 NW 23 gust 28 Light Snow 2 99.7 -15 85 -17 -28
18:00 NW 22 Snow 1 99.7 -15 85 -17 -28
17:00 NW 17 Light Snow 2 99.7 -16 85 -18 -27
16:00 NW 23 Light Snow 3 99.7 -16 86 -17 -29
15:00 NW 19 Light Snow 8 99.8 -16 83 -18 -28
 
Map of Arctic - Eastern Arctic marine weather areas Baker Lake Airport Chesterfield Inlet Airport Coral Harbour Airport Gjoa Haven Airport Kugaaruk Airport Rankin Inlet Airport Shepherd Bay Airport Whale Cove Airport Arctic Bay Brevoort Island Qikiqtarjuaq Airport Cape Dorset Airport Cape Dyer Cape Hooper Clyde Airport Grise Fiord Airport Hall Beach Airport Igloolik Airport Iqaluit Airport Longstaff Bluff Pangnirtung Airport Pond Inlet Airport Repulse Bay Airport Resolute Airport Resolution Island Rowley Island Airport Taloyoak Airport Wager Bay Akulivik Airport Ivujivik Airport Puvirnituq Airport Kangiqsujuaq Airport Kangirsuk Airport Quaqtaq Airport Tasiujaq Airport Cape Kakkiviak Cape Kiglapait Nain Airport Saglek Cape Mercy Kimmirut Airport Aupaluk Airport Salluit Airport Kangiqsualujjuaq Airport Fort Ross
Legend: buoyBuoy land stationLand Station